Content
SEND FEEDBACK

Daily
Averages
Monthly
Summary
United States of America

MALDEN, MISSOURI


Home > North America > United States > Missouri
Elevation: 295 feet     Latitude: 36 36N     Longitude: 089 59W

WEATHER
 
SELECT A DAY
Number of Records: 211,874;   Date Range: 1/1/95 - 11/24/14
 
SHARE

PRINT THIS DATA

[ ← Previous Day ]
WEATHER ALMANAC - JANUARY 4, 2014
[ Next Day → ]
[ °C ]   °F
Weather ElementAverageHighLow
Temperature34.8 °F39 °F (12:53 pm)27 °F (1:53 am)
Dewpoint20.3 °F27 °F (7:53 pm)15.1 °F (2:53 am)
Humidity55.9 %67 % (7:53 pm)45 % (10:53 am)
Barometer30.06 in30.18 in (1:53 am)29.92 in (11:53 pm)
Wind Speed8.1 mph17.3 mph (9:53 am)
Wind Gust24.2 mph (10:53 am)
Weather ElementAverage
Visibility10 mi
Wind DirectionSE (137 °)

Weather ElementTotal
Precipitation---
Heating Degree Days32 (Base 65)
Averaged from 23 records on January 4, 2014
WEATHER CONDITIONS BREAKOUT
WIND DIRECTION BREAKOUT
WEATHER BY HOUR - JANUARY 4, 2014
[ °C ]   °F
Local TimeTemperatureDewpointHumidityBarometerVisibilityWind DirectionWind SpeedGust SpeedPrecipitationEventsConditions
1:53 AM27.0 °F16.0 °F63 %30.18 in10.0 miSouth (180°)6.9 mphClear
2:53 AM28.0 °F15.1 °F58 %30.17 in10.0 miSouth (190°)10.4 mphClear
3:53 AM28.9 °F15.1 °F56 %30.14 in10.0 miSouth (180°)12.7 mphClear
4:53 AM28.0 °F15.1 °F58 %30.14 in10.0 miSouth (180°)10.4 mphClear
5:53 AM28.9 °F15.1 °F56 %30.13 in10.0 miSouth (180°)10.4 mphClear
6:53 AM28.9 °F16.0 °F58 %30.13 in10.0 miSouth (180°)10.4 mphClear
7:53 AM30.0 °F16.0 °F56 %30.14 in10.0 miSouth (170°)11.5 mphClear
8:53 AM33.1 °F17.1 °F52 %30.15 in10.0 miSouth (170°)13.8 mph20.7 mphClear
9:53 AM36.0 °F17.1 °F46 %30.14 in10.0 miSouth (190°)17.3 mphClear
10:53 AM37.9 °F18.0 °F45 %30.12 in10.0 miSouth (190°)13.8 mph24.2 mphOvercast
11:53 AM37.9 °F18.0 °F45 %30.06 in10.0 miSouth (170°)15.0 mph20.7 mphOvercast
12:53 PM39.0 °F19.0 °F45 %30.05 in10.0 miSSW (200°)11.5 mphOvercast
1:53 PM39.0 °F19.9 °F46 %30.01 in10.0 miSouth (170°)11.5 mphOvercast
2:53 PM39.0 °F21.0 °F49 %30.00 in10.0 miSouth (180°)9.2 mphOvercast
3:53 PM39.0 °F21.9 °F50 %30.00 in10.0 miSW (230°)3.5 mphOvercast
4:53 PM37.9 °F23.0 °F55 %29.99 in10.0 miCalmOvercast
5:53 PM37.0 °F25.0 °F62 %29.99 in10.0 miENE (60°)3.5 mphOvercast
6:53 PM37.9 °F24.1 °F57 %29.98 in10.0 miCalmOvercast
7:53 PM37.0 °F27.0 °F67 %29.99 in10.0 miNW (310°)3.5 mphOvercast
8:53 PM37.0 °F27.0 °F67 %29.97 in10.0 miCalmOvercast
9:53 PM37.0 °F27.0 °F67 %29.96 in10.0 miCalmOvercast
10:53 PM37.0 °F27.0 °F67 %29.94 in10.0 miNorth (10°)3.5 mphOvercast
11:53 PM39.0 °F26.1 °F60 %29.92 in10.0 miNorth (10°)6.9 mphOvercast
Hourly data recorded from KPOF, located miles away from Malden, Missouri







STORIES FROM OUR PARTNERS